Hourly Weather Rudakovo

Today, 5 August, Thursday

Time Temperature Precipitation Wind Pressure Humidity
00:00 +15°C° 0 mm 1 mps 741 mmHg 70%
01:00 +15°C° 0 mm 1 mps 741 mmHg 72%
02:00 +14°C° 0 mm 1 mps 741 mmHg 73%
03:00 +14°C° 0 mm 1 mps 741 mmHg 76%
04:00 +14°C° 0 mm 2 mps 741 mmHg 79%
05:00 +14°C° 0 mm 2 mps 741 mmHg 82%
06:00 +15°C° 0.2 mm 2 mps 741 mmHg 84%
07:00 +15°C° 0.2 mm 2 mps 741 mmHg 87%
08:00 +15°C° 0.2 mm 1 mps 741 mmHg 89%
09:00 +15°C° 0.4 mm 1 mps 741 mmHg 91%
10:00 +15°C° 0.4 mm 2 mps 740 mmHg 93%
11:00 +15°C° 0.4 mm 2 mps 740 mmHg 94%
12:00 +16°C° 0.4 mm 2 mps 740 mmHg 94%
13:00 +16°C° 0.4 mm 2 mps 740 mmHg 94%
14:00 +16°C° 0.4 mm 3 mps 739 mmHg 93%
15:00 +17°C° 0 mm 3 mps 739 mmHg 89%
16:00 +18°C° 0 mm 2 mps 739 mmHg 85%
17:00 +18°C° 0 mm 2 mps 739 mmHg 80%
18:00 +18°C° 0 mm 2 mps 738 mmHg 84%
19:00 +18°C° 0 mm 1 mps 738 mmHg 87%
20:00 +16°C° 0 mm 1 mps 738 mmHg 91%
21:00 +16°C° 0 mm 1 mps 738 mmHg 92%
22:00 +15°C° 0 mm 1 mps 738 mmHg 94%
23:00 +15°C° 0 mm 1 mps 738 mmHg 95%

Tomorrow, 6 August, Friday

Time Temperature Precipitation Wind Pressure Humidity
00:00 +14°C° 0 mm 1 mps 738 mmHg 96%
01:00 +14°C° 0 mm 1 mps 738 mmHg 96%
02:00 +14°C° 0 mm 1 mps 738 mmHg 96%
03:00 +14°C° 0 mm 1 mps 738 mmHg 96%
04:00 +14°C° 0 mm 1 mps 737 mmHg 97%
05:00 +14°C° 0 mm 1 mps 737 mmHg 97%
06:00 +15°C° 0 mm 2 mps 737 mmHg 93%
07:00 +16°C° 0 mm 2 mps 737 mmHg 90%
08:00 +17°C° 0 mm 3 mps 737 mmHg 87%
09:00 +18°C° 1 mm 3 mps 737 mmHg 90%
10:00 +18°C° 1 mm 3 mps 737 mmHg 93%
11:00 +18°C° 1 mm 3 mps 737 mmHg 96%
12:00 +18°C° 3.2 mm 3 mps 736 mmHg 97%
13:00 +18°C° 3.2 mm 3 mps 736 mmHg 97%
14:00 +18°C° 3.2 mm 3 mps 736 mmHg 98%
15:00 +18°C° 1.3 mm 3 mps 736 mmHg 98%
16:00 +18°C° 1.3 mm 3 mps 736 mmHg 98%
17:00 +18°C° 1.3 mm 3 mps 735 mmHg 98%
18:00 +18°C° 1.7 mm 3 mps 735 mmHg 98%
19:00 +18°C° 1.7 mm 3 mps 735 mmHg 98%
20:00 +18°C° 1.7 mm 4 mps 735 mmHg 98%
21:00 +18°C° 1.8 mm 4 mps 735 mmHg 98%
22:00 +18°C° 1.8 mm 4 mps 735 mmHg 98%
23:00 +18°C° 1.8 mm 4 mps 735 mmHg 97%

Day after tomorrow, 7 August, Saturday

Time Temperature Precipitation Wind Pressure Humidity
00:00 +17°C° 0.1 mm 3 mps 735 mmHg 98%
01:00 +17°C° 0.1 mm 3 mps 734 mmHg 98%
02:00 +16°C° 0.1 mm 2 mps 734 mmHg 98%
03:00 +16°C° 0 mm 2 mps 734 mmHg 98%
04:00 +16°C° 0 mm 2 mps 734 mmHg 98%
05:00 +16°C° 0 mm 2 mps 734 mmHg 98%
06:00 +17°C° 0.1 mm 2 mps 734 mmHg 96%
07:00 +18°C° 0.1 mm 2 mps 734 mmHg 94%
08:00 +19°C° 0.1 mm 2 mps 734 mmHg 91%
09:00 +20°C° 0.1 mm 2 mps 735 mmHg 88%
10:00 +21°C° 0.1 mm 2 mps 735 mmHg 84%
11:00 +22°C° 0.1 mm 3 mps 735 mmHg 81%
12:00 +22°C° 0.3 mm 3 mps 735 mmHg 81%
13:00 +22°C° 0.3 mm 3 mps 735 mmHg 81%
14:00 +22°C° 0.3 mm 3 mps 735 mmHg 82%
15:00 +22°C° 0.4 mm 3 mps 735 mmHg 84%
16:00 +21°C° 0.4 mm 3 mps 735 mmHg 86%
17:00 +20°C° 0.4 mm 4 mps 735 mmHg 88%
18:00 +18°C° 0 mm 3 mps 736 mmHg 88%
19:00 +17°C° 0 mm 3 mps 736 mmHg 88%
20:00 +14°C° 0 mm 3 mps 736 mmHg 87%
21:00 +13°C° 0 mm 3 mps 737 mmHg 90%
22:00 +13°C° 0 mm 3 mps 737 mmHg 92%
23:00 +12°C° 0 mm 3 mps 737 mmHg 95%

8 August, Sunday

Time Temperature Precipitation Wind Pressure Humidity
00:00 +12°C° 0 mm 3 mps 737 mmHg 95%
01:00 +12°C° 0 mm 3 mps 738 mmHg 94%
02:00 +12°C° 0 mm 3 mps 738 mmHg 94%
03:00 +12°C° 0 mm 3 mps 738 mmHg 92%
04:00 +13°C° 0 mm 3 mps 738 mmHg 90%
05:00 +13°C° 0 mm 3 mps 738 mmHg 89%
06:00 +14°C° 0 mm 4 mps 738 mmHg 83%
07:00 +17°C° 0 mm 4 mps 739 mmHg 78%
08:00 +18°C° 0 mm 4 mps 739 mmHg 72%
09:00 +20°C° 0 mm 4 mps 739 mmHg 65%
10:00 +21°C° 0 mm 4 mps 740 mmHg 57%
11:00 +23°C° 0 mm 4 mps 740 mmHg 50%
12:00 +25°C° 0 mm 4 mps 740 mmHg 48%
13:00 +25°C° 0 mm 4 mps 740 mmHg 45%
14:00 +26°C° 0 mm 4 mps 741 mmHg 43%
15:00 +26°C° 0 mm 3 mps 741 mmHg 48%
16:00 +25°C° 0 mm 3 mps 741 mmHg 53%
17:00 +25°C° 0 mm 2 mps 741 mmHg 58%
18:00 +23°C° 0 mm 2 mps 741 mmHg 64%
19:00 +21°C° 0 mm 2 mps 741 mmHg 70%
20:00 +20°C° 0 mm 1 mps 741 mmHg 76%
21:00 +19°C° 0 mm 1 mps 742 mmHg 79%
22:00 +19°C° 0 mm 1 mps 742 mmHg 82%
23:00 +18°C° 0 mm 1 mps 742 mmHg 86%

9 August, Monday

Time Temperature Precipitation Wind Pressure Humidity
00:00 +18°C° 0 mm 1 mps 742 mmHg 87%
01:00 +17°C° 0 mm 2 mps 742 mmHg 89%
02:00 +16°C° 0 mm 2 mps 742 mmHg 91%
03:00 +16°C° 0 mm 2 mps 742 mmHg 91%
04:00 +16°C° 0 mm 2 mps 742 mmHg 91%
05:00 +16°C° 0 mm 2 mps 742 mmHg 92%
06:00 +18°C° 0 mm 2 mps 742 mmHg 84%
07:00 +20°C° 0 mm 2 mps 742 mmHg 76%
08:00 +23°C° 0 mm 2 mps 742 mmHg 68%
09:00 +25°C° 0 mm 3 mps 743 mmHg 63%
10:00 +26°C° 0 mm 3 mps 743 mmHg 57%
11:00 +27°C° 0 mm 3 mps 743 mmHg 51%
12:00 +28°C° 0 mm 3 mps 743 mmHg 49%
13:00 +29°C° 0 mm 3 mps 742 mmHg 47%
14:00 +29°C° 0 mm 3 mps 742 mmHg 45%
15:00 +29°C° 0 mm 3 mps 742 mmHg 49%
16:00 +28°C° 0 mm 2 mps 742 mmHg 53%
17:00 +28°C° 0 mm 2 mps 742 mmHg 56%
18:00 +26°C° 0 mm 2 mps 742 mmHg 63%
19:00 +24°C° 0 mm 2 mps 742 mmHg 69%
20:00 +22°C° 0 mm 1 mps 742 mmHg 76%
21:00 +21°C° 0 mm 1 mps 742 mmHg 79%
22:00 +21°C° 0 mm 1 mps 742 mmHg 82%
23:00 +20°C° 0 mm 1 mps 742 mmHg 85%

10 August, Tuesday

Time Temperature Precipitation Wind Pressure Humidity
00:00 +19°C° 0 mm 1 mps 742 mmHg 86%
01:00 +19°C° 0 mm 1 mps 742 mmHg 87%
02:00 +19°C° 0 mm 1 mps 742 mmHg 88%
03:00 +19°C° 0.1 mm 1 mps 742 mmHg 88%
04:00 +18°C° 0.1 mm 1 mps 742 mmHg 89%
05:00 +18°C° 0.1 mm 1 mps 742 mmHg 89%
06:00 +20°C° 0.3 mm 1 mps 742 mmHg 85%
07:00 +21°C° 0.3 mm 1 mps 742 mmHg 81%
08:00 +22°C° 0.3 mm 1 mps 742 mmHg 77%
09:00 +24°C° 0 mm 1 mps 742 mmHg 72%
10:00 +25°C° 0 mm 1 mps 742 mmHg 67%
11:00 +26°C° 0 mm 1 mps 742 mmHg 62%
12:00 +27°C° 0.1 mm 1 mps 742 mmHg 60%
13:00 +27°C° 0.1 mm 1 mps 742 mmHg 59%
14:00 +28°C° 0.1 mm 1 mps 742 mmHg 58%
15:00 +27°C° 0.3 mm 1 mps 742 mmHg 63%
16:00 +26°C° 0.3 mm 2 mps 742 mmHg 69%
17:00 +25°C° 0.3 mm 2 mps 741 mmHg 74%
18:00 +24°C° 0.4 mm 2 mps 741 mmHg 80%
19:00 +21°C° 0.4 mm 2 mps 741 mmHg 86%
20:00 +20°C° 0.4 mm 2 mps 741 mmHg 92%
21:00 +19°C° 1.1 mm 2 mps 741 mmHg 94%
22:00 +19°C° 1.1 mm 2 mps 741 mmHg 95%
23:00 +19°C° 1.1 mm 2 mps 741 mmHg 96%
Show more

We Need Your Consent

Meteoprog and our Service Providers may store and access personal data such as cookies, device identifiers or other similar technologies on your device and process such data to personalise content and ads, as well as provide social media features and to analyse the traffic.

  • Store and/or access information on your device

    Cookies, device identifiers or other information can be stored or accessed on your device for the purposes indicated above.

  • Personalised ads and content, ad and content measurement, audience insights, and products development

    Ads and content can be personalised based on a profile. More data can be added to better personalise ads and content. Ad and content performance can be measured. Insights about the audience who saw the ads and content can be derived. Such data can be used to develop or improve user’s experience, systems and software.

By clicking ‘I Agree’ you will allow the use of indicated cookies, device identifiers, web beacons or other similar technologies. Your settings can be changed in the browser on your device.

For certain purposes, legitimate interests may be relied on, rather than consent. You can read more about this in our Privacy and Cookie Policy.